AAL1072 KCLT-KMKE

Flight info

Callsign AAL1072
Flight time 1h 39m
Altitude 32000
Route JOJJO5 DOOGE Q93 OCASE FWA GETCH LYSTR SUDDS
Aircraft B738/M-SDE2E3FGHIRWXY/LB1

Departure

Time 2026-05-09 01:12
Airport Charlotte Douglas International Airport (KCLT)

Arrival

Time 2026-05-09 02:52
Airport General Mitchell International Airport (KMKE)
Time Latitude Longitude Altitude Speed Heading
2026-05-09 00:41 35.21950 -80.94326 731 ft 0 kts 86°
2026-05-09 00:55 35.21950 -80.94342 731 ft 3 kts 89°
2026-05-09 00:55 35.21949 -80.94363 730 ft 3 kts 52°
2026-05-09 00:55 35.21941 -80.94372 730 ft 3 kts 25°
2026-05-09 00:56 35.21923 -80.94377 730 ft 3 kts 349°
2026-05-09 00:56 35.21904 -80.94371 729 ft 3 kts
2026-05-09 00:56 35.21893 -80.94374 724 ft 1 kts 45°
2026-05-09 00:56 35.21884 -80.94385 734 ft 3 kts 69°
2026-05-09 00:57 35.21881 -80.94398 731 ft 3 kts 141°
2026-05-09 00:57 35.21897 -80.94406 732 ft 3 kts 183°
2026-05-09 00:57 35.21908 -80.94405 728 ft 2 kts 189°
2026-05-09 00:57 35.21923 -80.94402 729 ft 1 kts 189°
2026-05-09 00:58 35.21924 -80.94401 725 ft 1 kts 189°
2026-05-09 01:00 35.21919 -80.94401 730 ft 3 kts 177°
2026-05-09 01:00 35.21889 -80.94393 731 ft 6 kts 169°
2026-05-09 01:00 35.21845 -80.94386 731 ft 7 kts 174°
2026-05-09 01:00 35.21800 -80.94383 731 ft 6 kts 177°
2026-05-09 01:01 35.21751 -80.94379 731 ft 8 kts 176°
2026-05-09 01:01 35.21696 -80.94376 731 ft 8 kts 186°
2026-05-09 01:01 35.21652 -80.94412 731 ft 8 kts 240°
2026-05-09 01:01 35.21636 -80.94473 731 ft 7 kts 256°
2026-05-09 01:02 35.21626 -80.94534 731 ft 7 kts 258°
2026-05-09 01:02 35.21623 -80.94599 731 ft 10 kts 268°
2026-05-09 01:02 35.21617 -80.94724 731 ft 18 kts 266°
2026-05-09 01:02 35.21607 -80.94884 732 ft 19 kts 264°
2026-05-09 01:03 35.21609 -80.94997 732 ft 12 kts 298°
2026-05-09 01:03 35.21689 -80.95027 733 ft 15 kts 357°
2026-05-09 01:03 35.21816 -80.95038 733 ft 19 kts 355°
2026-05-09 01:03 35.21946 -80.95050 733 ft 18 kts 356°
2026-05-09 01:04 35.22072 -80.95060 733 ft 18 kts 357°
2026-05-09 01:04 35.22195 -80.95071 733 ft 17 kts 355°
2026-05-09 01:04 35.22273 -80.95079 733 ft 17 kts 355°
2026-05-09 01:04 35.22388 -80.95090 733 ft 16 kts 357°
2026-05-09 01:05 35.22498 -80.95098 732 ft 15 kts 356°
2026-05-09 01:05 35.22591 -80.95106 732 ft 13 kts 357°
2026-05-09 01:05 35.22730 -80.95152 733 ft 7 kts 292°
2026-05-09 01:06 35.22732 -80.95188 734 ft 2 kts 267°
2026-05-09 01:06 35.22732 -80.95189 734 ft 0 kts 267°
2026-05-09 01:11 35.22732 -80.95202 734 ft 2 kts 267°
2026-05-09 01:11 35.22729 -80.95267 738 ft 9 kts 266°
2026-05-09 01:11 35.22692 -80.95313 740 ft 9 kts 182°
2026-05-09 01:11 35.22514 -80.95299 740 ft 57 kts 176°
2026-05-09 01:12 35.21880 -80.95244 740 ft 123 kts 176°
2026-05-09 01:12 35.20831 -80.95151 776 ft 172 kts 175°
2026-05-09 01:12 35.19646 -80.95033 1592 ft 165 kts 175°
2026-05-09 01:12 35.18521 -80.94885 2420 ft 165 kts 175°
2026-05-09 01:13 35.17319 -80.94715 2910 ft 188 kts 175°
2026-05-09 01:13 35.15920 -80.94604 3131 ft 214 kts 177°
2026-05-09 01:13 35.14365 -80.94491 3471 ft 230 kts 177°
2026-05-09 01:13 35.12699 -80.94373 3808 ft 249 kts 177°
2026-05-09 01:14 35.10956 -80.94248 4449 ft 257 kts 178°
2026-05-09 01:14 35.09182 -80.94345 5348 ft 257 kts 198°
2026-05-09 01:14 35.07704 -80.95527 6216 ft 258 kts 228°
2026-05-09 01:14 35.06805 -80.97434 7036 ft 261 kts 252°
2026-05-09 01:15 35.06612 -80.99646 7886 ft 265 kts 276°
2026-05-09 01:15 35.07201 -81.01745 8756 ft 268 kts 300°
2026-05-09 01:15 35.08463 -81.03430 9669 ft 272 kts 316°
2026-05-09 01:15 35.09966 -81.04869 10388 ft 279 kts 319°
2026-05-09 01:16 35.11592 -81.06355 10593 ft 303 kts 319°
2026-05-09 01:16 35.13331 -81.07932 10778 ft 326 kts 319°
2026-05-09 01:16 35.15217 -81.09644 10939 ft 347 kts 320°
2026-05-09 01:17 35.19289 -81.13361 11528 ft 376 kts 320°
2026-05-09 01:17 35.21392 -81.15290 12156 ft 378 kts 320°
2026-05-09 01:17 35.23472 -81.17202 12869 ft 378 kts 319°
2026-05-09 01:17 35.25584 -81.19153 13498 ft 381 kts 319°
2026-05-09 01:18 35.27716 -81.21125 14061 ft 384 kts 319°
2026-05-09 01:18 35.29860 -81.23113 14599 ft 387 kts 319°
2026-05-09 01:18 35.31991 -81.25090 15150 ft 389 kts 318°
2026-05-09 01:18 35.34154 -81.27099 15699 ft 391 kts 318°
2026-05-09 01:19 35.36328 -81.29120 16235 ft 393 kts 317°
2026-05-09 01:19 35.38521 -81.31160 16720 ft 397 kts 317°
2026-05-09 01:19 35.40735 -81.33221 17220 ft 399 kts 317°
2026-05-09 01:19 35.42951 -81.35285 17721 ft 401 kts 317°
2026-05-09 01:20 35.45159 -81.37342 18220 ft 404 kts 317°
2026-05-09 01:20 35.47415 -81.39447 18607 ft 408 kts 317°
2026-05-09 01:20 35.49677 -81.41556 19067 ft 408 kts 317°
2026-05-09 01:20 35.51923 -81.43653 19460 ft 410 kts 317°
2026-05-09 01:21 35.54206 -81.45787 19908 ft 412 kts 317°
2026-05-09 01:21 35.56499 -81.47916 20350 ft 414 kts 317°
2026-05-09 01:21 35.58841 -81.50006 20776 ft 416 kts 318°
2026-05-09 01:21 35.61209 -81.52096 21184 ft 419 kts 318°
2026-05-09 01:22 35.63576 -81.54194 21609 ft 420 kts 318°
2026-05-09 01:22 35.65923 -81.56269 22029 ft 421 kts 318°
2026-05-09 01:22 35.68323 -81.58371 22402 ft 423 kts 318°
2026-05-09 01:22 35.70733 -81.60475 22791 ft 425 kts 318°
2026-05-09 01:23 35.73151 -81.62583 23177 ft 427 kts 318°
2026-05-09 01:23 35.75585 -81.64709 23524 ft 429 kts 318°
2026-05-09 01:23 35.78023 -81.66841 23849 ft 430 kts 318°
2026-05-09 01:23 35.80462 -81.68978 24187 ft 430 kts 317°
2026-05-09 01:24 35.82902 -81.71116 24527 ft 430 kts 317°
2026-05-09 01:24 35.85341 -81.73258 24813 ft 430 kts 317°
2026-05-09 01:24 35.87784 -81.75406 25029 ft 431 kts 316°
2026-05-09 01:24 35.90205 -81.77535 25328 ft 432 kts 316°
2026-05-09 01:25 35.92655 -81.79691 25638 ft 432 kts 316°
2026-05-09 01:25 35.95106 -81.81859 25877 ft 433 kts 315°
2026-05-09 01:25 35.97532 -81.84069 26255 ft 431 kts 315°
2026-05-09 01:25 35.99937 -81.86195 26616 ft 430 kts 315°
2026-05-09 01:26 36.02371 -81.88320 27030 ft 427 kts 315°
2026-05-09 01:26 36.04790 -81.90430 27515 ft 422 kts 314°
2026-05-09 01:26 36.07181 -81.92521 28028 ft 417 kts 313°
2026-05-09 01:26 36.09539 -81.94593 28548 ft 412 kts 313°
2026-05-09 01:27 36.11843 -81.96625 28970 ft 409 kts 312°
2026-05-09 01:27 36.14106 -81.98719 29295 ft 396 kts 306°
2026-05-09 01:27 36.16257 -82.00884 29683 ft 403 kts 312°
2026-05-09 01:27 36.18636 -82.02788 30065 ft 411 kts 315°
2026-05-09 01:28 36.21035 -82.04672 30352 ft 404 kts 311°
2026-05-09 01:28 36.23301 -82.06651 30625 ft 401 kts 310°
2026-05-09 01:28 36.25528 -82.08720 30946 ft 399 kts 309°
2026-05-09 01:28 36.27801 -82.10739 31247 ft 406 kts 312°
2026-05-09 01:29 36.30114 -82.12732 31496 ft 402 kts 310°
2026-05-09 01:29 36.32364 -82.14776 31795 ft 400 kts 309°
2026-05-09 01:29 36.34491 -82.16905 32022 ft 388 kts 307°
2026-05-09 01:29 36.36673 -82.18973 31986 ft 399 kts 310°
2026-05-09 01:30 36.39135 -82.20709 31952 ft 423 kts 319°
2026-05-09 01:30 36.41590 -82.22546 31978 ft 401 kts 308°
2026-05-09 01:30 36.45868 -82.26853 31997 ft 398 kts 308°
2026-05-09 01:31 36.50484 -82.30842 32015 ft 402 kts 309°
2026-05-09 01:31 36.55071 -82.34793 32049 ft 402 kts 310°
2026-05-09 01:32 36.59468 -82.38949 31986 ft 398 kts 308°
2026-05-09 01:32 36.63889 -82.43144 32023 ft 397 kts 306°
2026-05-09 01:33 36.66044 -82.45307 32200 ft 402 kts 309°
2026-05-09 01:33 36.68345 -82.47338 32429 ft 405 kts 311°
2026-05-09 01:33 36.70640 -82.49317 32709 ft 403 kts 310°
2026-05-09 01:33 36.72926 -82.51322 33018 ft 401 kts 310°
2026-05-09 01:34 36.75237 -82.53326 33309 ft 406 kts 312°
2026-05-09 01:34 36.77533 -82.55323 33673 ft 396 kts 308°
2026-05-09 01:34 36.79708 -82.57360 33934 ft 395 kts 308°
2026-05-09 01:34 36.81904 -82.59427 33985 ft 394 kts 307°
2026-05-09 01:35 36.86265 -82.63620 34018 ft 394 kts 307°
2026-05-09 01:35 36.90525 -82.67860 34014 ft 393 kts 306°
2026-05-09 01:36 36.94856 -82.72094 34016 ft 395 kts 307°
2026-05-09 01:36 36.99129 -82.76370 33997 ft 394 kts 307°
2026-05-09 01:37 37.03520 -82.80555 34015 ft 397 kts 307°
2026-05-09 01:37 37.07864 -82.84790 33989 ft 399 kts 308°
2026-05-09 01:38 37.12176 -82.89149 33967 ft 395 kts 306°
2026-05-09 01:38 37.16384 -82.93544 33997 ft 402 kts 308°
2026-05-09 01:39 37.20610 -82.98020 33961 ft 395 kts 305°
2026-05-09 01:39 37.24822 -83.02437 33965 ft 397 kts 306°
2026-05-09 01:40 37.29211 -83.06745 33957 ft 404 kts 309°
2026-05-09 01:40 37.33731 -83.10892 33944 ft 398 kts 306°
2026-05-09 01:41 37.37525 -83.15609 32845 ft 342 kts 280°
2026-05-09 01:41 37.38470 -83.18615 31742 ft 380 kts 296°
2026-05-09 01:41 37.40222 -83.20943 33849 ft 351 kts 304°
2026-05-09 01:42 37.42169 -83.22902 33672 ft 377 kts 313°
2026-05-09 01:42 37.44482 -83.24601 33712 ft 387 kts 314°
2026-05-09 01:42 37.46794 -83.26318 33898 ft 385 kts 313°
2026-05-09 01:42 37.49156 -83.28012 33993 ft 394 kts 315°
2026-05-09 01:43 37.53870 -83.31585 34005 ft 396 kts 311°
2026-05-09 01:43 37.57998 -83.35849 34012 ft 374 kts 302°
2026-05-09 01:44 37.60059 -83.37993 33974 ft 391 kts 310°
2026-05-09 01:44 37.62327 -83.39934 33951 ft 394 kts 311°
2026-05-09 01:44 37.66685 -83.44010 33954 ft 387 kts 308°
2026-05-09 01:45 37.70866 -83.48210 33939 ft 385 kts 307°
2026-05-09 01:45 37.75067 -83.52452 33946 ft 385 kts 307°
2026-05-09 01:46 37.79233 -83.56663 33991 ft 386 kts 308°
2026-05-09 01:46 37.83639 -83.60758 33889 ft 394 kts 309°
2026-05-09 01:47 37.87694 -83.65168 33948 ft 386 kts 307°
2026-05-09 01:47 37.91916 -83.69473 33948 ft 393 kts 310°
2026-05-09 01:48 37.96157 -83.73695 33932 ft 387 kts 308°
2026-05-09 01:48 38.00373 -83.78004 33956 ft 388 kts 308°
2026-05-09 01:49 38.04569 -83.82286 33946 ft 388 kts 307°
2026-05-09 01:49 38.08690 -83.86648 34005 ft 391 kts 311°
2026-05-09 01:50 38.12994 -83.90815 33966 ft 390 kts 309°
2026-05-09 01:50 38.17244 -83.95162 33962 ft 392 kts 309°
2026-05-09 01:51 38.21480 -83.99512 33956 ft 394 kts 309°
2026-05-09 01:51 38.25063 -84.03186 33954 ft 401 kts 309°
2026-05-09 01:52 38.29459 -84.07689 33946 ft 408 kts 309°
2026-05-09 01:52 38.33890 -84.12223 33930 ft 408 kts 309°
2026-05-09 01:53 38.38359 -84.16662 33915 ft 417 kts 315°
2026-05-09 01:53 38.43707 -84.19999 33918 ft 441 kts 329°
2026-05-09 01:54 38.49591 -84.22210 33919 ft 444 kts 331°
2026-05-09 01:54 38.55537 -84.24377 33924 ft 443 kts 330°
2026-05-09 01:55 38.61453 -84.26563 33913 ft 441 kts 330°
2026-05-09 01:55 38.67310 -84.28754 33914 ft 439 kts 330°
2026-05-09 01:56 38.73140 -84.30960 33913 ft 438 kts 330°
2026-05-09 01:56 38.79007 -84.33181 33923 ft 438 kts 330°
2026-05-09 01:57 38.84825 -84.35385 33916 ft 437 kts 330°
2026-05-09 01:57 38.90672 -84.37606 33918 ft 437 kts 330°
2026-05-09 01:58 38.96480 -84.39815 33910 ft 437 kts 330°
2026-05-09 01:58 39.02330 -84.42044 33911 ft 438 kts 330°
2026-05-09 01:59 39.08144 -84.44261 33912 ft 438 kts 329°
2026-05-09 01:59 39.13996 -84.46495 33931 ft 438 kts 330°
2026-05-09 02:00 39.19815 -84.48722 33930 ft 438 kts 330°
2026-05-09 02:00 39.25662 -84.50964 33929 ft 438 kts 330°
2026-05-09 02:01 39.31518 -84.53211 33936 ft 437 kts 330°
2026-05-09 02:01 39.37334 -84.55448 33924 ft 436 kts 330°
2026-05-09 02:02 39.43135 -84.57683 33931 ft 436 kts 330°
2026-05-09 02:02 39.48953 -84.59928 33933 ft 435 kts 331°
2026-05-09 02:03 39.54716 -84.62156 33936 ft 433 kts 331°
2026-05-09 02:03 39.60498 -84.64395 33927 ft 432 kts 331°
2026-05-09 02:04 39.66260 -84.66631 33919 ft 430 kts 331°
2026-05-09 02:04 39.71975 -84.68854 33933 ft 430 kts 332°
2026-05-09 02:05 39.77718 -84.71091 33935 ft 430 kts 332°
2026-05-09 02:05 39.83417 -84.73314 33935 ft 430 kts 332°
2026-05-09 02:06 39.89180 -84.75566 33928 ft 430 kts 332°
2026-05-09 02:07 39.97772 -84.78933 33929 ft 431 kts 331°
2026-05-09 02:07 40.03511 -84.81185 33905 ft 432 kts 332°
2026-05-09 02:08 40.09287 -84.83455 33900 ft 433 kts 332°
2026-05-09 02:08 40.15054 -84.85726 33929 ft 433 kts 331°
2026-05-09 02:09 40.20830 -84.88005 33900 ft 433 kts 331°
2026-05-09 02:09 40.26578 -84.90275 33893 ft 433 kts 331°
2026-05-09 02:10 40.32324 -84.92549 33899 ft 432 kts 331°
2026-05-09 02:10 40.38097 -84.94839 33922 ft 432 kts 330°
2026-05-09 02:11 40.43850 -84.97124 33903 ft 431 kts 330°
2026-05-09 02:11 40.49553 -84.99394 33896 ft 430 kts 330°
2026-05-09 02:12 40.55282 -85.01678 33898 ft 428 kts 330°
2026-05-09 02:12 40.60942 -85.04075 33887 ft 418 kts 324°
2026-05-09 02:12 40.63439 -85.05813 33895 ft 407 kts 318°
2026-05-09 02:13 40.65888 -85.07680 33888 ft 407 kts 318°
2026-05-09 02:13 40.70819 -85.11453 33884 ft 409 kts 318°
2026-05-09 02:14 40.75745 -85.15187 33878 ft 411 kts 319°
2026-05-09 02:14 40.80714 -85.18930 33889 ft 413 kts 319°
2026-05-09 02:15 40.85732 -85.22706 33878 ft 415 kts 319°
2026-05-09 02:15 40.90752 -85.26483 33874 ft 415 kts 319°
2026-05-09 02:16 40.95729 -85.30237 33876 ft 414 kts 319°
2026-05-09 02:16 41.00739 -85.34023 33869 ft 414 kts 319°
2026-05-09 02:17 41.05713 -85.37791 33886 ft 413 kts 319°
2026-05-09 02:17 41.10705 -85.41579 33873 ft 413 kts 319°
2026-05-09 02:18 41.15702 -85.45374 33864 ft 413 kts 319°
2026-05-09 02:18 41.20703 -85.49184 33862 ft 413 kts 319°
2026-05-09 02:19 41.25691 -85.52990 33864 ft 413 kts 319°
2026-05-09 02:19 41.30648 -85.56778 33875 ft 414 kts 319°
2026-05-09 02:20 41.35648 -85.60606 33874 ft 414 kts 318°
2026-05-09 02:20 41.40661 -85.64450 33851 ft 415 kts 318°
2026-05-09 02:21 41.45639 -85.68273 33858 ft 414 kts 318°
2026-05-09 02:21 41.50649 -85.72129 33855 ft 415 kts 319°
2026-05-09 02:22 41.55628 -85.75969 33857 ft 415 kts 319°
2026-05-09 02:22 41.60642 -85.79842 33849 ft 416 kts 319°
2026-05-09 02:23 41.65643 -85.83703 33611 ft 406 kts 318°
2026-05-09 02:23 41.68047 -85.85556 32653 ft 404 kts 318°
2026-05-09 02:23 41.70470 -85.87435 32187 ft 401 kts 318°
2026-05-09 02:23 41.72891 -85.89319 32072 ft 404 kts 318°
2026-05-09 02:24 41.75332 -85.91224 31944 ft 407 kts 319°
2026-05-09 02:24 41.80264 -85.95071 31837 ft 410 kts 319°
2026-05-09 02:25 41.85223 -85.98938 31845 ft 416 kts 319°
2026-05-09 02:25 41.90263 -86.02882 31847 ft 426 kts 319°
2026-05-09 02:26 41.95437 -86.06929 31552 ft 430 kts 319°
2026-05-09 02:26 41.98016 -86.08938 31292 ft 425 kts 319°
2026-05-09 02:26 42.00540 -86.10909 31041 ft 425 kts 319°
2026-05-09 02:26 42.03110 -86.12925 30796 ft 428 kts 319°
2026-05-09 02:27 42.05692 -86.14957 30541 ft 430 kts 319°
2026-05-09 02:27 42.08291 -86.17006 30115 ft 436 kts 319°
2026-05-09 02:27 42.10922 -86.19080 29731 ft 438 kts 319°
2026-05-09 02:27 42.13534 -86.21139 29346 ft 440 kts 320°
2026-05-09 02:28 42.16169 -86.23213 28934 ft 435 kts 319°
2026-05-09 02:28 42.18771 -86.25256 28507 ft 430 kts 320°
2026-05-09 02:28 42.21364 -86.27299 28102 ft 431 kts 320°
2026-05-09 02:28 42.23963 -86.29357 27700 ft 433 kts 320°
2026-05-09 02:29 42.26536 -86.31397 27315 ft 434 kts 320°
2026-05-09 02:29 42.29157 -86.33477 26887 ft 436 kts 321°
2026-05-09 02:29 42.31779 -86.35559 26474 ft 438 kts 321°
2026-05-09 02:29 42.34412 -86.37650 26062 ft 439 kts 321°
2026-05-09 02:30 42.37056 -86.39750 25691 ft 440 kts 322°
2026-05-09 02:30 42.39672 -86.41830 25293 ft 441 kts 322°
2026-05-09 02:30 42.42315 -86.43932 24908 ft 441 kts 322°
2026-05-09 02:30 42.44956 -86.46035 24515 ft 437 kts 323°
2026-05-09 02:31 42.47569 -86.48114 24128 ft 431 kts 323°
2026-05-09 02:31 42.50149 -86.50170 23747 ft 428 kts 323°
2026-05-09 02:31 42.52683 -86.52197 23372 ft 427 kts 323°
2026-05-09 02:31 42.55242 -86.54246 22933 ft 426 kts 323°
2026-05-09 02:32 42.57824 -86.56315 22521 ft 425 kts 324°
2026-05-09 02:32 42.60364 -86.58353 22068 ft 423 kts 324°
2026-05-09 02:32 42.62864 -86.60359 21652 ft 422 kts 324°
2026-05-09 02:32 42.65390 -86.62387 21228 ft 420 kts 324°
2026-05-09 02:33 42.67909 -86.64412 20815 ft 418 kts 324°
2026-05-09 02:33 42.70408 -86.66424 20397 ft 416 kts 324°
2026-05-09 02:33 42.72866 -86.68402 20004 ft 414 kts 325°
2026-05-09 02:33 42.75343 -86.70400 19601 ft 412 kts 325°
2026-05-09 02:34 42.77811 -86.72392 19205 ft 410 kts 325°
2026-05-09 02:34 42.80270 -86.74379 18818 ft 409 kts 325°
2026-05-09 02:34 42.82713 -86.76354 18425 ft 407 kts 325°
2026-05-09 02:34 42.85148 -86.78325 18038 ft 406 kts 326°
2026-05-09 02:35 42.87543 -86.80265 17611 ft 404 kts 326°
2026-05-09 02:35 42.89961 -86.82226 17179 ft 401 kts 326°
2026-05-09 02:35 42.92363 -86.84174 16753 ft 398 kts 326°
2026-05-09 02:35 42.94704 -86.86075 16344 ft 395 kts 326°
2026-05-09 02:36 42.97054 -86.87985 15926 ft 391 kts 326°
2026-05-09 02:36 42.99382 -86.89880 15547 ft 387 kts 326°
2026-05-09 02:36 43.01688 -86.91758 15137 ft 382 kts 326°
2026-05-09 02:36 43.03965 -86.93615 14736 ft 378 kts 326°
2026-05-09 02:37 43.06194 -86.95434 14348 ft 374 kts 326°
2026-05-09 02:37 43.08428 -86.97258 13952 ft 371 kts 326°
2026-05-09 02:37 43.10638 -86.99063 13560 ft 368 kts 326°
2026-05-09 02:37 43.12655 -87.01093 13116 ft 362 kts 311°
2026-05-09 02:38 43.14055 -87.03921 12709 ft 358 kts 295°
2026-05-09 02:38 43.14892 -87.07100 12282 ft 348 kts 283°
2026-05-09 02:38 43.15096 -87.09294 11988 ft 339 kts 274°
2026-05-09 02:38 43.15066 -87.12410 11574 ft 324 kts 270°
2026-05-09 02:39 43.14970 -87.15431 11162 ft 311 kts 269°
2026-05-09 02:39 43.14845 -87.19189 11028 ft 284 kts 269°
2026-05-09 02:39 43.14792 -87.20944 11015 ft 271 kts 270°
2026-05-09 02:39 43.14722 -87.23469 11021 ft 265 kts 270°
2026-05-09 02:40 43.14657 -87.25996 11015 ft 264 kts 270°
2026-05-09 02:40 43.14596 -87.28503 11013 ft 262 kts 270°
2026-05-09 02:40 43.14534 -87.30984 11020 ft 260 kts 270°
2026-05-09 02:40 43.14473 -87.33454 10948 ft 258 kts 270°
2026-05-09 02:41 43.14411 -87.35887 10724 ft 256 kts 270°
2026-05-09 02:41 43.14431 -87.38328 10340 ft 256 kts 279°
2026-05-09 02:41 43.14677 -87.40748 9962 ft 254 kts 276°
2026-05-09 02:41 43.14847 -87.43123 9461 ft 254 kts 276°
2026-05-09 02:42 43.15011 -87.45527 8909 ft 254 kts 275°
2026-05-09 02:42 43.15176 -87.47937 8384 ft 253 kts 275°
2026-05-09 02:42 43.15345 -87.50339 7880 ft 252 kts 275°
2026-05-09 02:42 43.15517 -87.52725 7381 ft 251 kts 275°
2026-05-09 02:43 43.15690 -87.55060 7095 ft 246 kts 275°
2026-05-09 02:43 43.15864 -87.57335 6996 ft 234 kts 275°
2026-05-09 02:43 43.16035 -87.59519 6787 ft 227 kts 275°
2026-05-09 02:43 43.16208 -87.61665 6402 ft 226 kts 275°
2026-05-09 02:44 43.16383 -87.63789 6001 ft 226 kts 275°
2026-05-09 02:44 43.16565 -87.65936 5594 ft 226 kts 275°
2026-05-09 02:44 43.16758 -87.68087 5190 ft 227 kts 275°
2026-05-09 02:44 43.16957 -87.70215 4767 ft 228 kts 275°
2026-05-09 02:45 43.17166 -87.72366 4427 ft 225 kts 275°
2026-05-09 02:45 43.17383 -87.74478 4104 ft 223 kts 275°
2026-05-09 02:45 43.17608 -87.76597 3680 ft 225 kts 275°
2026-05-09 02:45 43.17845 -87.78689 3308 ft 225 kts 275°
2026-05-09 02:46 43.18099 -87.80802 3030 ft 222 kts 275°
2026-05-09 02:46 43.18353 -87.82834 2996 ft 210 kts 275°
2026-05-09 02:46 43.18603 -87.84771 3023 ft 204 kts 275°
2026-05-09 02:46 43.18461 -87.86651 2991 ft 199 kts 238°
2026-05-09 02:47 43.17413 -87.87792 2983 ft 203 kts 197°
2026-05-09 02:47 43.15993 -87.87661 3013 ft 210 kts 171°
2026-05-09 02:47 43.14544 -87.87373 3021 ft 209 kts 179°
2026-05-09 02:47 43.13098 -87.87154 3068 ft 210 kts 178°
2026-05-09 02:48 43.11631 -87.86993 3012 ft 212 kts 183°
2026-05-09 02:48 43.10158 -87.86988 3007 ft 209 kts 185°
2026-05-09 02:48 43.08771 -87.87088 2987 ft 192 kts 190°
2026-05-09 02:48 43.07500 -87.87281 2976 ft 178 kts 191°
2026-05-09 02:49 43.06283 -87.87491 2810 ft 172 kts 191°
2026-05-09 02:49 43.05138 -87.87689 2581 ft 159 kts 191°
2026-05-09 02:49 43.04078 -87.87871 2371 ft 148 kts 191°
2026-05-09 02:49 43.03087 -87.88042 2194 ft 140 kts 191°
2026-05-09 02:50 43.02131 -87.88207 2028 ft 139 kts 191°
2026-05-09 02:50 43.01172 -87.88372 1834 ft 140 kts 189°
2026-05-09 02:50 43.00209 -87.88538 1641 ft 139 kts 188°
2026-05-09 02:50 42.99232 -87.88704 1463 ft 143 kts 187°
2026-05-09 02:51 42.98234 -87.88881 1266 ft 145 kts 186°
2026-05-09 02:51 42.97216 -87.89058 1044 ft 150 kts 186°
2026-05-09 02:51 42.96199 -87.89224 838 ft 148 kts 186°
2026-05-09 02:51 42.95203 -87.89395 689 ft 137 kts 188°
2026-05-09 02:52 42.94426 -87.89530 684 ft 81 kts 186°
2026-05-09 02:52 42.94055 -87.89592 683 ft 40 kts 187°
2026-05-09 02:52 42.93804 -87.89635 685 ft 33 kts 188°
2026-05-09 02:52 42.93628 -87.89667 683 ft 20 kts 192°
2026-05-09 02:53 42.93552 -87.89766 683 ft 16 kts 265°
2026-05-09 02:53 42.93576 -87.89877 686 ft 12 kts 320°
2026-05-09 02:53 42.93657 -87.89892 685 ft 12 kts
2026-05-09 02:53 42.93740 -87.89892 684 ft 12 kts
2026-05-09 02:54 42.93820 -87.89889 683 ft 11 kts
2026-05-09 02:54 42.93898 -87.89888 683 ft 11 kts 360°
2026-05-09 02:54 42.93973 -87.89887 687 ft 11 kts
2026-05-09 02:54 42.94049 -87.89877 683 ft 13 kts 17°
2026-05-09 02:55 42.94131 -87.89789 687 ft 16 kts 46°
2026-05-09 02:55 42.94220 -87.89716 684 ft 15 kts 10°
2026-05-09 02:55 42.94323 -87.89698 683 ft 14 kts
2026-05-09 02:55 42.94421 -87.89681 683 ft 14 kts
2026-05-09 02:56 42.94514 -87.89666 687 ft 13 kts
2026-05-09 02:56 42.94604 -87.89651 685 ft 13 kts
2026-05-09 02:56 42.94692 -87.89636 687 ft 12 kts
2026-05-09 02:56 42.94762 -87.89676 687 ft 12 kts 303°
2026-05-09 02:57 42.94794 -87.89742 682 ft 4 kts 281°
2026-05-09 02:57 42.94794 -87.89778 685 ft 4 kts 273°
2026-05-09 02:57 42.94797 -87.89811 686 ft 1 kts 277°
2026-05-09 02:58 42.94797 -87.89814 687 ft 1 kts 277°
2026-05-09 02:58 42.94797 -87.89817 687 ft 0 kts 277°